Notices

What's New in latest Release from April 7th, 2021:

- Updated Glossary, including Speed of Maximum Gust, and Total Hourly Precipitation

- Updated national and regional climate services offices contacts and prices information

- Addition of station inventory lists for 1981-2010, 1971-2000, and 1961-1990 Normals.

If you haven't already, please take our survey and provide feedback about our website: https://eccc.sondage-survey.ca/f/LanguageSelection.aspx?s=442ca660-fcf1-47c0-95a9-59707d6fd709

Hourly Data Report for April 10, 2003

TORONTO CITY
ONTARIO

43°40'00.000" N
79°24'00.000" W
112.50 m
6158355
71508
XTO

Download Data

Hourly Data (April 2003)
Hourly Data Report for April 10, 2003
TIME
LST
Temp Definition
°C
Dew Point Definition
°C
Rel Hum Definition
%
Precip. Amount Definition
mm

Wind Dir Definition
10's deg

Wind Spd Definition
km/h
Visibility Definition
km
Stn Press Definition
kPa
Hmdx Definition


Wind Chill Definition


Weather Definition


00:00 1.4 -1.4 82   LegendMM LegendMM LegendMM 101.01     LegendNANA
01:00 0.5 -1.9 84   LegendMM LegendMM LegendMM 101.03     LegendNANA
02:00 0.3 -2.0 85   LegendMM LegendMM LegendMM 101.04     LegendNANA
03:00 -0.2 -2.1 87   LegendMM LegendMM LegendMM 101.02     LegendNANA
04:00 -0.1 -1.8 88   LegendMM LegendMM LegendMM 100.99     LegendNANA
05:00
06:00 -0.2 -1.7 90   LegendMM LegendMM LegendMM 101.02     LegendNANA
07:00 1.3 -1.0 85   LegendMM LegendMM LegendMM 101.03     LegendNANA
08:00 4.1 -1.2 68   LegendMM LegendMM LegendMM 101.06     LegendNANA
09:00 5.3 -1.3 62   LegendMM LegendMM LegendMM 101.13     LegendNANA
10:00 4.3 -0.7 70   LegendMM LegendMM LegendMM 101.09     LegendNANA
11:00
12:00 6.7 -5.7 41   LegendMM LegendMM LegendMM 100.94     LegendNANA
13:00 7.3 -5.4 40   LegendMM LegendMM LegendMM 100.92     LegendNANA
14:00 8.2 -5.0 39   LegendMM LegendMM LegendMM 100.80     LegendNANA
15:00 9.5 -7.3 30   LegendMM LegendMM LegendMM 100.72     LegendNANA
16:00 7.6 -5.2 40   LegendMM LegendMM LegendMM 100.70     LegendNANA
17:00 7.2 -6.2 38   LegendMM LegendMM LegendMM 100.67     LegendNANA
18:00 7.4 -8.9 30   LegendMM LegendMM LegendMM 100.59     LegendNANA
19:00 7.5 -7.8 33   LegendMM LegendMM LegendMM 100.56     LegendNANA
20:00 6.8 -8.1 34   LegendMM LegendMM LegendMM 100.50     LegendNANA
21:00 7.0 -8.5 32   LegendMM LegendMM LegendMM 100.47     LegendNANA
22:00 6.4 -9.2 32   LegendMM LegendMM LegendMM 100.42     LegendNANA
23:00 4.2 -6.3 46   LegendMM LegendMM LegendMM 100.37     LegendNANA

Notes on Data Quality.

Legend

  • E = Estimated
  • M = Missing
  • NA = Not Available*
  • [empty] = Indicates an unobserved value
Date modified: